This demonstration page uses our WeatherBlox Daily Observations layout. Learn more.

Left ArrowRight Arrow

Hourly Observations for May 18, 2020

Temp ( °F °C ) Dew Point ( °F °C ) Humidity (%) Winds ( mph kmh ) Pressure ( in mb ) Visibility ( mi km ) Precip ( " mm )
12:53 am 00:53 Mostly Cloudy 66 18.9 65 18.3 96 96 Calm 29.80 1009 9 14 0.00 0.00
1:53 am 01:53 Cloudy 68 20 65 18.3 90 90 Calm 29.78 1008 10 16 0.00 0.00
2:53 am 02:53 Cloudy 67 19.4 65 18.3 93 93 Calm 29.76 1008 10 16 0.00 0.00
3:53 am 03:53 Partly Cloudy 70 21.1 64 17.8 82 82 VRB 3 6 29.75 1007 10 16 0.00 0.00
4:53 am 04:53 Mostly Cloudy 70 21.1 64 17.8 82 82 VRB 5 7 29.75 1007 10 16 0.00 0.00
5:53 am 05:53 Mostly Cloudy 69 20.6 64 17.8 84 84 VRB 3 6 29.74 1007 10 16 0.00 0.00
6:44 am 06:44 Cloudy 69 20.6 64 17.8 84 84 VRB 3 6 29.74 1007 10 16 0.00 0.00
6:51 am 06:51 Mostly Cloudy 70 21 64 18 83 83 VRB 5 7 29.74 1007 10 16 0.00 0.00
6:53 am 06:53 Mostly Cloudy 69 20.6 64 17.8 84 84 VRB 3 6 29.75 1007 10 16 0.00 0.00
7:53 am 07:53 Cloudy 70 21.1 64 17.8 82 82 VRB 3 6 29.75 1008 10 16 0.00 0.00
8:53 am 08:53 Cloudy 71 21.7 64 17.8 79 79 VRB 5 7 29.75 1008 10 16 0.00 0.00
9:19 am 09:19 Cloudy 71 21.7 64 17.8 79 79 VRB 5 7 29.75 1008 10 16 0.00 0.00
9:53 am 09:53 Cloudy with Light Rain 71 21.7 64 17.8 79 79 VRB 7 11 29.76 1008 10 16 0.00 0.00
10:15 am 10:15 Cloudy with Rain 70 21.1 64 17.8 82 82 SSW 10 17 29.77 1008 2 3 0.06 1.52
10:18 am 10:18 Cloudy with Heavy Rain 68 20 65 18.3 90 90 SSW 8 13 29.77 1008 1 1 0.13 3.30
10:27 am 10:27 Cloudy with Rain 67 19.4 65 18.3 93 93 VRB 5 7 29.78 1008 2 3 0.16 4.06
10:29 am 10:29 Cloudy with Rain 67 19.4 65 18.3 93 93 VRB 3 6 29.78 1008 3 5 0.16 4.06
10:53 am 10:53 Cloudy with Light Rain 67 19.4 66 18.9 97 97 WSW 3 6 29.78 1009 3 5 0.18 4.57
11:00 am 11:00 Cloudy with Light Rain 65 18.3 64 17.8 97 97 WNW 12 19 29.79 1009 3 4 0.01 0.25
11:02 am 11:02 Cloudy with Light Rain 65 18.3 63 17.2 93 93 NW 10 17 29.79 1009 3 5 0.01 0.25
11:09 am 11:09 Cloudy with Rain 64 17.8 62 16.7 93 93 NW 7 11 29.78 1008 4 6 0.03 0.76
11:16 am 11:16 Cloudy with Light Rain 64 17.8 63 17.2 96 96 NNW 6 9 29.79 1009 5 8 0.03 0.76
11:26 am 11:26 Cloudy 64 17.8 62 16.7 93 93 NW 5 7 29.78 1008 10 16 0.03 0.76
11:34 am 11:34 Cloudy 64 17.8 62 16.7 93 93 N 6 9 29.78 1008 10 16 0.03 0.76
11:49 am 11:49 Cloudy with Light Rain 64 18 63 17 94 94 NW 6 9 29.78 1008 7 11 0.03 0.76
11:53 am 11:53 Cloudy with Light Rain 64 17.8 62 16.7 93 93 NNW 6 9 29.78 1009 6 10 0.03 0.76
12:09 pm 12:09 Cloudy 64 17.8 62 16.7 93 93 N 3 6 29.78 1008 9 14 0.01 0.25
12:22 pm 12:22 Cloudy with Heavy Rain 63 17.2 62 16.7 97 97 Calm 29.79 1009 2 2 0.06 1.52
12:34 pm 12:34 Cloudy with Light Rain 63 17.2 61 16.1 93 93 W 5 7 29.79 1009 2 3 0.13 3.30
12:42 pm 12:42 Cloudy with Light Rain 62 16.7 61 16.1 96 96 W 8 13 29.80 1009 6 10 0.14 3.56
12:53 pm 12:53 Cloudy with Light Rain 62 16.7 60 15.6 93 93 WNW 9 15 29.79 1009 7 11 0.15 3.81
1:00 pm 13:00 Cloudy with Rain 62 16.7 60 15.6 93 93 WNW 10 17 29.79 1009 5 8 0.02 0.51
1:13 pm 13:13 Cloudy with Rain 62 16.7 60 15.6 93 93 NW 9 15 29.78 1009 5 8 0.04 1.02
1:53 pm 13:53 Cloudy with Rain 62 16.7 60 15.6 93 93 NNW 6 9 29.78 1009 6 10 0.06 1.52
2:06 pm 14:06 Cloudy with Light Rain 62 16.7 60 15.6 93 93 NW 5 7 29.78 1009 4 6 0.03 0.76
2:29 pm 14:29 Mostly Cloudy with Light Rain 62 16.7 60 15.6 93 93 NNW 7 11 29.78 1009 10 16 0.04 1.02
2:36 pm 14:36 Cloudy with Light Rain 62 16.7 60 15.6 93 93 NW 5 7 29.77 1008 9 14 0.05 1.27
2:53 pm 14:53 Cloudy with Light Rain 62 16.7 60 15.6 93 93 NNW 5 7 29.77 1008 10 16 0.06 1.52
3:27 pm 15:27 Cloudy with Light Rain 61 16.1 59 15 93 93 NNW 5 7 29.76 1008 10 16 0.00 0.00
3:37 pm 15:37 Cloudy with Light Rain 61 16.1 59 15 93 93 NW 8 13 29.76 1008 10 16 0.00 0.00
3:53 pm 15:53 Cloudy with Nearby Thunderstorms 61 16.1 58 14.4 90 90 NW 14 22 29.79 1009 9 14 0.01 0.25
4:09 pm 16:09 Cloudy with Nearby Thunderstorms 60 15.6 58 14.4 93 93 W 8 13 29.81 1009 2 3 0.08 2.03
4:16 pm 16:16 Cloudy with Nearby Thunderstorms 60 15.6 58 14.4 93 93 NW 9 15 29.79 1009 2 2 0.11 2.79
4:18 pm 16:18 Cloudy with Rain 60 15.6 58 14.4 93 93 NNW 8 13 29.79 1009 2 3 0.12 3.05
4:27 pm 16:27 Cloudy with Rain 59 15 59 15 100 100 NNW 9 15 29.79 1009 1 2 0.22 5.59
4:31 pm 16:31 Cloudy with Rain 59 15 59 15 100 100 N 7 11 29.78 1008 2 3 0.24 6.10
4:40 pm 16:40 Cloudy with Rain 59 15 59 15 100 100 NNE 9 15 29.77 1008 3 5 0.27 6.86
4:53 pm 16:53 Cloudy with Light Rain 60 15.6 60 15.6 100 100 NNE 5 7 29.77 1008 5 8 0.30 7.62
5:36 pm 17:36 Cloudy with Light Rain 60 15.6 60 15.6 100 100 Calm 29.78 1008 5 8 0.03 0.76
5:53 pm 17:53 Cloudy with Rain 60 15.6 60 15.6 100 100 ESE 3 6 29.77 1008 4 6 0.06 1.52
5:57 pm 17:57 Cloudy with Heavy Rain 60 15.6 60 15.6 100 100 E 5 7 29.78 1008 2 3 0.05 1.27
6:01 pm 18:01 Cloudy with Heavy Rain 60 15.6 60 15.6 100 100 Calm 29.78 1008 2 2 0.07 1.78
6:13 pm 18:13 Cloudy with Heavy Rain 60 15.6 60 15.6 100 100 VRB 3 6 29.79 1009 1 2 0.19 4.83
6:21 pm 18:21 Cloudy with Heavy Rain 60 15.6 60 15.6 100 100 VRB 3 6 29.78 1008 1 1 0.27 6.86
6:30 pm 18:30 Cloudy with Heavy Rain 60 15.6 60 15.6 100 100 Calm 29.78 1008 2 3 0.32 8.13
6:42 pm 18:42 Cloudy with Heavy Rain 60 15.6 60 15.6 100 100 Calm 29.79 1009 2 2 0.38 9.65
6:50 pm 18:50 Cloudy with Rain 61 16 N/A N/A W 5 7 29.78 1009 2 2 0.40 10.16
6:53 pm 18:53 Cloudy with Rain 61 16 N/A N/A W 5 7 29.78 1008 2 3 0.42 10.67
7:00 pm 19:00 Cloudy with Heavy Rain 60 15.6 60 15.6 100 100 W 5 7 29.79 1009 1 2 0.04 1.02
7:25 pm 19:25 Cloudy with Rain 60 15.6 60 15.6 100 100 W 3 6 29.78 1008 2 3 0.18 4.57
7:29 pm 19:29 Cloudy with Light Rain 60 15.6 60 15.6 100 100 WNW 3 6 29.78 1008 3 5 0.18 4.57
7:53 pm 19:53 Cloudy with Rain 60 15.6 60 15.6 100 100 W 3 6 29.78 1009 3 4 0.21 5.33
8:08 pm 20:08 Cloudy with Rain 60 15.6 60 15.6 100 100 Calm 29.79 1009 3 5 0.04 1.02
8:22 pm 20:22 Cloudy with Rain 61 16 N/A N/A SW 3 6 29.79 1009 2 3 0.07 1.78
8:38 pm 20:38 Cloudy with Heavy Rain 60 15.6 60 15.6 100 100 VRB 7 11 29.81 1009 2 3 0.17 4.32
8:46 pm 20:46 Cloudy with Heavy Rain 60 15.6 60 15.6 100 100 SW 6 9 29.82 1010 1 2 0.26 6.60
8:53 pm 20:53 Cloudy with Heavy Rain 60 15.6 60 15.6 100 100 Calm 29.80 1009 2 2 0.31 7.87
8:59 pm 20:59 Cloudy with Heavy Rain 59 15 59 15 100 100 NNW 3 6 29.81 1009 2 3 0.05 1.27
9:06 pm 21:06 Cloudy with Rain 59 15 59 15 100 100 Calm 29.80 1009 3 5 0.06 1.52
9:53 pm 21:53 Cloudy with Light Rain 60 15.6 60 15.6 100 100 Calm 29.76 1008 10 16 0.12 3.05
10:00 pm 22:00 Cloudy with Light Rain 60 15.6 60 15.6 100 100 Calm 29.77 1008 10 16 0.00 0.00
10:10 pm 22:10 Cloudy 60 15.6 60 15.6 100 100 W 5 7 29.78 1008 10 16 0.00 0.00
10:53 pm 22:53 Cloudy 61 16 N/A N/A Calm 29.78 1009 10 16 0.00 0.00
11:19 pm 23:19 Cloudy 61 16 N/A N/A Calm 29.78 1009 10 16 0.00 0.00
11:53 pm 23:53 Cloudy 60 15.6 60 15.6 100 100 Calm 29.77 1008 7 11 0.01 0.25

Powered by AerisWeather